Location: Gilevgi
(36.8751°N, 30.0581°E)
Time: 21:57:36
(UTC+00:00)

Daily predictions for brighter satellites

Satellite Brightness Start Highest point End
(mag) Time Altitude Azimuth Time Altitude Azimuth Time Altitude Azimuth
NOSS 2-3 (E) 3.2 15:08:28 10° SSW 15:12:15 67° ESE 15:15:53 10° NE
CZ-2D R/B 3.8 15:09:50 10° SE 15:12:24 24° ENE 15:15:01 10° NNE
NOSS 2-3 (D) 3.2 15:09:10 10° SSW 15:12:58 62° ESE 15:16:37 10° NE
IRS-1C 4.5 15:10:11 10° SE 15:15:10 43° ENE 15:20:10 10° N
IRIDIUM 114 4.4 15:10:49 10° N 15:15:59 60° E 15:21:08 10° SSE
Okean 1-7 Rocket 3.9 15:12:53 10° N 15:17:03 43° E 15:21:11 10° SSE
Cosmos 1461 4.3 15:15:16 10° WSW 15:18:42 30° NW 15:22:14 10° N
Cosmos 1933 3.2 15:15:29 10° S 15:19:15 60° E 15:23:01 10° NNE
Cosmos 1602 Rocket 3.5 15:14:58 10° N 15:19:19 71° E 15:23:38 10° SSE
YAOGAN 1 4.3 15:18:56 10° E 15:20:34 12° ENE 15:22:11 10° NE
Cosmos 2227 Rocket 2.8 15:16:37 10° N 15:21:41 33° ENE 15:26:42 10° SE
H-II Stage 2 4.5 15:05:31 10° W 15:23:47 42° SSW 15:27:54 10° SE
Milstar 3 Cent rocket 4.5 15:16:03 10° WSW 15:24:05 56° S 15:41:28 10° ESE
IRIDIUM 103 4.3 15:19:56 10° N 15:25:09 74° E 15:30:21 10° S
SJ-12 4.1 15:22:33 10° SE 15:26:06 41° ENE 15:29:40 10° N
BREEZE-M DEB (TANK) 4.4 15:23:45 10° NNW 15:26:52 23° NNE 15:33:52 10° E
SKYMED 2 4.5 15:23:24 10° NE 15:27:10 29° E 15:30:55 10° SSE
Cosmos 1697 Rocket 2.9 15:23:59 10° SSW 15:29:34 76° WNW 15:35:12 10° NNE
Cosmos 1655 Rocket 4.4 15:25:48 10° N 15:31:34 38° ENE 15:37:18 10° SE
Cosmos 990 Rocket 4.0 15:26:36 10° SSW 15:31:42 89° WNW 15:36:52 10° NNE
Aureole 1 Rocket 3.7 15:30:01 10° SSE 15:33:45 37° E 15:38:23 10° NNE
Cosmos 1743 3.4 15:30:44 10° NNW 15:33:51 47° W 15:36:57 10° S
Cosmos 2151 3.1 15:30:09 10° N 15:34:19 78° W 15:38:27 10° S
MOS 1 Rocket 3.6 15:30:10 10° SSE 15:34:48 49° ENE 15:39:43 10° N
Cosmos 1867 3.7 15:32:15 10° NNW 15:37:34 50° NE 15:42:48 10° SE
SAR-Lupe-4 3.4 15:36:52 10° SSE 15:40:22 70° ENE 15:43:54 10° N
ARIANE 5 R/B 2.4 15:35:57 10° SSE 15:40:58 77° ENE 15:46:05 10° N
Cosmos 1953 Rocket 4.2 15:39:04 10° NNE 15:43:08 34° ENE 15:47:10 10° SE
Cosmos 1607 4.0 15:37:35 10° NNW 15:43:52 89° WSW 15:50:12 10° SSE
COSMOS 2455 4.2 15:40:16 10° SSE 15:44:20 19° ESE 15:46:26 16° ENE
BREEZE M DEB (TANK) 3.2 15:37:44 10° NW 15:46:37 52° NNE 15:48:59 18° E
Cosmos 1900 4.3 15:42:25 10° NNW 15:47:25 66° ENE 15:52:17 10° SE
SAR-Lupe-1 4.0 15:47:36 10° SSE 15:51:10 84° ENE 15:54:47 10° N
Cosmos 1825 Rocket 3.4 15:48:12 10° N 15:52:32 81° E 15:56:49 10° S
Cosmos 2084 Rocket 3.3 15:48:34 10° NNW 15:52:48 77° ENE 15:56:59 10° SE
CZ-2D R/B 4.0 15:52:54 10° SE 15:56:43 35° ENE 16:00:31 10° N
USA 81 4.4 15:51:48 10° NNE 15:56:47 41° E 16:01:42 10° SSE
SPOT 1/Viking Rocket 3.7 15:52:44 10° SSE 15:57:45 51° ENE 16:02:47 10° N
Helios 1A Rocket 3.4 15:58:29 26° E 15:58:36 26° E 16:01:31 10° SSE
SMAP 4.3 15:57:28 10° S 16:01:54 44° W 16:06:22 10° NNW
EXPRESS MD2 3.4 16:02:13 10° W 16:04:34 39° NNW 16:05:46 26° NNE
IRS-P3 4.1 15:59:17 10° SSE 16:04:35 87° ENE 16:09:55 10° NNW
CZ-4C R/B 3.2 15:58:32 10° NNW 16:06:08 88° WSW 16:15:12 10° SSE
Cosmos 2058 Rocket 3.0 16:04:55 10° S 16:09:20 68° E 16:13:32 11° NNE
Cosmos 1076 Rocket 3.4 16:06:40 10° N 16:10:59 81° E 16:15:17 10° S
Cosmos 2297 Rocket 3.9 16:09:06 10° NW 16:14:13 35° WSW 16:19:17 10° SSW
SL-16 R/B 3.5 16:11:03 10° SSE 16:14:14 20° ESE 16:14:14 20° ESE
COSMO-SKYMED 1 2.3 16:12:52 20° NNE 16:15:37 68° ESE 16:19:41 10° S
Meteor 1-26 Rocket 4.0 16:12:30 10° S 16:17:53 70° E 16:23:11 10° NNE
Cosmos 1553 Rocket 3.9 16:16:49 10° S 16:22:49 61° E 16:28:56 10° NNE
Cosmos 1538 Rocket 4.0 16:17:48 10° N 16:23:04 62° ENE 16:28:20 10° SSE
Resurs 1-3 3.4 16:27:49 10° SSE 16:32:05 75° ENE 16:36:23 10° N
Cosmos 1980 Rocket 3.0 16:27:33 10° SW 16:33:03 51° WNW 16:37:57 13° N
Cosmos 2219 3.3 16:29:00 10° N 16:34:35 49° ENE 16:35:52 42° ESE
Spot 4 Rocket 3.9 16:35:26 10° SSE 16:40:32 87° WSW 16:45:41 10° NNW
Hubble Space Telescope 2.4 16:40:38 10° SW 16:43:32 22° S 16:43:32 22° S
Cosmos 2369 3.8 16:40:04 10° SSW 16:45:46 74° WNW 16:48:45 29° NNE
Cosmos 1898 Rocket 4.1 16:41:41 10° SSW 16:46:41 53° WNW 16:49:58 21° N
Cosmos 2263 Rocket 2.2 16:43:47 10° NNW 16:49:29 82° WSW 16:55:09 10° SSE
DMSP B5D1-3 4.3 16:49:09 65° NE 16:49:51 77° ESE 16:54:53 10° S
SL-24 R/B - RUBIN 2 3.9 16:44:48 10° SSW 16:50:28 87° ESE 16:51:13 66° NE
Cosmos 1244 Rocket 4.4 16:44:40 10° N 16:50:57 87° W 16:57:07 10° S
OAO 1 4.4 16:49:20 10° W 16:54:50 75° S 16:55:20 69° SE
Okean 1 4.5 16:52:16 10° SSW 16:55:36 35° W 16:56:07 34° WNW
YAOGAN 1 3.2 16:51:45 10° S 16:55:54 53° W 17:00:05 10° NNW
Cosmos 1417 Rocket 4.3 16:54:57 10° S 17:01:06 68° E 17:01:08 68° E
Cosmos 2227 Rocket 3.9 17:00:42 10° NW 17:05:35 31° WSW 17:10:28 10° SSW
Cosmos 1937 Rocket 4.2 17:00:35 10° SW 17:05:36 49° WNW 17:07:22 35° NNW
H-2A R/B 3.2 17:03:25 10° SW 17:06:31 35° SSE 17:06:43 35° SSE
Cosmos 1386 Rocket 4.5 17:04:53 10° N 17:12:24 57° SSE 17:17:14 10° S
Cosmos 2333 Rocket 3.7 17:06:52 10° S 17:09:14 24° SSE 17:09:14 24° SSE
BREEZE-M DEB (TANK) 4.3 17:03:14 10° WNW 17:19:06 47° NNE 17:19:12 47° NNE
BREEZE-M DEB (TANK) 4.4 17:21:23 10° WSW 17:27:30 47° WNW 17:27:30 47° WNW
USA 59 Rocket 2.8 17:25:01 10° SSW 17:25:15 11° SSW 17:25:15 11° SSW
COSMOS 2455 3.2 17:23:46 10° SW 17:29:38 59° WNW 17:29:38 59° WNW
Cosmos 2322 Rocket 4.4 17:24:20 10° S 17:25:07 14° S 17:25:07 14° S
SL-16 R/B 3.9 17:53:23 10° SW 17:56:09 28° WSW 17:56:09 28° WSW
